View from above orbital plane
|
View from above satellite
|
Ground track
|
The orbit data is extracted from the following two-line orbital elements,
1 35811U 09045A 09254.84636867 .00030685 00000-0 16118-3 0 492
2 35811 051.6393 221.9058 0031197 036.1303 046.3116 15.79744503 2166
Epoch (UTC): | 11 September 2009 20:18:46 |
Eccentricity: | 0.0031197 |
inclination: | 51.6393° |
perigee height: | 310 km |
apogee height: | 352 km |
right ascension of ascending node: | 221.9058° |
argument of perigee: | 36.1303° |
revolutions per day: | 15.79744503 |
mean anomaly at epoch: | 46.3116° |
orbit number at epoch: | 216 |
The dashed part of the orbit path shows where the satellite is in the earth's shadow,
|
|